Dewpoint
37 38 40 41 42 42 41 37 36 36 36 35 34 33 33 31 31 31 32 32 32 32 31 32 31 31 30 30 30 30 29 28 27 26 26 26 27 27 26 26 26 25 25 24 23 26 22 21 21 22 21 19 18 17 17 18 18 17 19 22 17 16 15 17 18 16 13 12 16 13 12 14 21 20 12 9 7 11 17 20 21 18 18 18 19
33 35 38 39 40 41 40 38 36 35 35 34 34 33 32 31 31 30 30 30 31 31 31 31 32 31 31 30 30 29 29 28 26 25 25 25 26 26 27 26 26 25 25 23 23 24 22 21 20 21 21 20 19 19 18 23 23 21 20 19 19 16 15 16 17 14 9 8 6 6 12 12 22 11 10 10 7 7 9 8 8 10 13 16 17
31 34 36 38 39 40 39 38 37 36 35 34 34 33 32 31 30 30 30 29 30 30 31 30 31 31 31 30 30 29 28 28 27 26 25 25 25 26 26 26 26 25 25 25 23 23 22 21 20 20 21 22 21 20 21 21 20 19 18 16 14 18 18 21 15 14 9 14 12 11 8 7 15 11 12 11 7 6 7 6 8 5 8 11 14
26 30 33 36 37 39 39 38 37 36 35 34 33 33 32 31 30 30 29 28 29 29 31 30 30 29 29 28 29 28 27 28 26 25 24 24 23 24 25 26 25 25 25 24 24 23 22 21 20 20 20 22 20 19 19 18 20 19 18 19 16 12 12 13 21 15 13 12 9 8 9 7 6 10 3 10 9 5 7 6 5 5 7 11 12
23 25 29 32 35 37 38 38 37 36 36 35 33 33 32 31 31 30 30 28 28 29 30 29 28 25 24 22 24 23 22 24 23 23 23 23 23 23 23 25 25 25 25 24 24 22 22 21 20 20 20 21 21 19 19 18 19 19 18 18 15 13 11 9 11 16 12 14 12 8 6 5 7 10 5 6 8 3 4 5 12 3 5 8 8
21 23 25 29 32 34 37 38 37 36 36 36 34 33 33 32 31 30 30 29 28 28 28 27 27 25 22 22 21 22 23 22 23 24 22 22 22 22 22 24 25 25 25 24 24 23 22 22 21 20 19 21 21 19 19 19 18 18 17 16 16 14 14 7 6 21 17 22 12 8 12 13 7 7 4 2 10 8 10 3 2 2 2 2 2
21 22 24 25 28 31 34 36 36 36 35 36 35 34 33 32 31 30 30 29 28 27 27 26 26 25 24 24 24 23 24 23 23 24 23 22 23 21 21 23 23 24 24 24 24 24 22 22 21 20 20 19 22 19 18 18 18 18 19 16 16 18 13 11 9 8 3 9 12 16 18 17 10 7 6 2 4 6 2 -1 -1 2 2 0 1
20 21 22 24 25 27 30 33 35 35 35 35 34 34 33 32 31 30 29 29 28 27 26 26 25 24 24 24 25 24 24 24 21 21 21 22 20 20 20 21 22 23 23 24 24 24 23 22 21 21 20 19 22 19 18 18 18 18 19 17 16 17 14 15 10 7 7 5 11 8 15 7 3 6 7 7 8 1 2 1 -3 -2 -1 1 3
19 20 22 23 24 25 27 29 33 34 34 33 33 33 33 32 31 30 29 29 27 26 25 25 27 24 24 24 24 24 23 23 21 21 18 20 17 18 18 20 22 22 22 23 23 23 24 22 21 20 20 19 23 19 17 17 16 17 18 16 15 16 14 14 13 10 8 7 5 -1 -0 -0 1 3 5 4 3 1 2 -1 -2 -4 -5 -5 -3
20 19 21 22 23 24 25 27 29 32 33 33 32 32 31 31 31 29 28 28 27 25 25 25 25 25 23 23 23 22 22 20 19 18 17 17 16 16 17 18 20 21 21 22 23 23 23 22 21 20 19 19 22 18 17 16 15 15 16 15 14 15 12 15 14 11 8 8 4 1 -0 -1 -2 -3 -2 -1 -3 -1 1 -2 -4 -7 -7 -6 -2
19 20 20 21 23 23 24 25 26 28 30 31 30 29 29 30 29 29 28 27 27 25 24 24 24 24 23 22 22 22 21 19 18 17 17 17 16 15 16 17 19 20 21 21 22 22 22 23 21 20 19 21 22 18 17 16 14 14 13 13 13 13 10 13 19 12 9 9 4 3 3 1 1 0 -0 -4 -4 -6 -6 -5 -6 -5 -9 -10 -8
19 20 20 20 21 22 23 24 25 26 28 28 28 28 28 28 28 28 27 26 26 25 24 23 23 23 23 22 21 21 21 19 18 17 17 17 16 15 15 16 17 19 20 21 21 21 22 22 22 20 20 19 20 19 17 16 14 13 11 11 11 10 9 11 13 8 6 6 3 3 3 1 2 1 1 -1 -3 -4 -4 -5 -8 -8 -9 -8 -7
21 21 21 21 22 22 23 24 24 24 26 26 27 27 26 26 26 26 26 25 25 25 24 23 23 22 22 22 21 21 20 19 18 18 17 17 17 16 16 16 16 18 19 20 20 21 21 21 21 19 19 19 20 19 17 16 13 11 10 9 9 8 8 10 9 7 5 4 2 0 1 -1 0 -2 -1 -2 -2 -2 -6 -7 -8 -8 -9 -8 -7
21 22 22 22 24 23 23 23 24 24 24 25 26 26 25 25 24 25 25 24 24 24 23 23 22 22 22 21 21 20 20 19 18 18 17 17 17 16 16 16 16 16 18 19 19 20 21 21 21 20 19 18 19 18 17 15 12 10 9 8 6 6 6 8 7 5 4 3 2 0 -0 -0 -2 -5 -5 -5 -4 -3 -6 -4 -6 -7 -9 -9 -7
19 21 23 23 24 23 23 23 23 24 24 24 24 24 24 24 23 23 23 23 23 23 23 22 22 22 21 21 20 19 19 19 18 18 17 17 17 17 16 16 16 16 17 18 19 19 20 20 20 19 18 18 18 17 15 13 11 10 9 8 6 3 4 6 5 3 2 1 1 2 1 -1 -3 -7 -6 -5 -4 -3 -2 -2 -3 -8 -6 -5 -6
21 22 22 23 24 24 24 24 23 23 23 23 23 23 23 23 23 22 22 22 22 22 22 22 22 22 21 20 20 19 20 19 19 19 18 18 17 18 17 17 17 17 17 17 17 18 19 19 19 19 18 17 17 15 13 11 9 10 9 7 5 3 2 4 3 2 1 1 1 1 2 -0 -3 -5 -5 -5 -4 -3 -3 -2 -2 -2 -2 -3 -4
20 21 22 23 24 24 24 24 24 24 23 23 23 23 22 22 22 22 21 21 21 21 21 21 21 21 21 20 20 19 19 19 18 19 19 18 19 18 18 18 18 17 17 17 16 17 18 18 18 18 17 16 15 13 11 9 8 9 7 6 5 1 2 2 1 0 1 0 0 1 3 1 -2 -4 -3 -4 -4 -3 -3 -2 -2 -2 0 -0 -7
19 19 20 22 24 25 25 25 24 24 24 24 23 23 23 22 21 21 21 20 20 20 20 20 20 20 20 20 20 19 19 19 19 19 20 19 18 18 17 17 17 16 16 15 16 16 17 18 17 17 16 15 14 11 10 8 6 7 5 4 4 1 2 1 0 -0 -1 -1 1 1 2 2 0 -1 -2 -3 -2 -0 -2 -1 -2 -2 -0 -1 -1
19 19 19 21 22 23 25 25 25 25 25 24 24 23 23 22 21 21 20 20 20 20 20 20 20 19 19 19 19 19 19 20 20 20 19 18 18 17 16 17 15 14 15 14 14 15 16 16 16 15 14 14 12 11 9 7 6 5 3 2 0 -1 1 0 -0 -0 -1 -1 -1 0 1 1 0 1 -1 0 -1 0 -1 -2 -2 0 -1 -1 -1
18 18 18 19 20 22 23 25 25 25 24 24 23 23 22 22 22 21 21 20 20 20 21 20 20 20 19 19 19 19 20 20 19 18 17 17 17 16 15 14 14 14 14 14 15 14 14 14 14 14 13 12 11 10 8 7 6 5 3 2 -0 -1 -0 -1 -1 -1 -1 -1 -0 -1 0 1 0 -0 0 0 -0 0 0 -0 -0 -1 -2 -1 -1
19 19 19 18 18 19 21 22 24 24 24 24 23 23 23 23 22 22 21 21 21 21 21 21 21 20 20 18 18 19 18 17 16 15 16 16 15 14 13 14 14 15 15 14 14 14 13 13 12 12 11 10 9 8 7 6 6 5 3 2 -1 -1 -1 -1 -1 -2 -2 -1 1 1 -0 0 0 1 1 1 1 0 0 1 0 0 -1 -2 -1
18 20 20 20 18 18 19 19 20 21 22 23 24 23 22 22 22 22 21 21 21 21 21 21 19 19 18 17 16 15 14 14 13 13 14 14 12 12 12 13 15 14 14 14 14 13 12 11 11 10 10 9 8 8 6 6 6 5 3 1 -1 -1 -1 -2 -1 -2 -2 -1 0 0 0 -0 -0 2 2 1 1 1 -0 0 -0 0 0 -0 -0
18 19 21 21 19 19 19 19 19 19 20 21 22 22 22 21 21 20 20 20 19 20 18 18 16 15 14 14 12 11 10 12 12 11 12 12 11 11 13 15 15 13 13 14 13 11 11 10 9 9 10 8 7 6 5 6 6 5 3 1 -0 -1 -1 -1 -1 -1 -1 1 1 2 0 -0 -1 0 1 1 1 0 1 0 -0 0 -0 0 -0
18 19 20 21 20 19 19 19 19 19 19 19 20 20 20 20 19 18 18 18 16 15 14 13 12 12 10 9 8 8 8 9 10 9 10 10 12 14 14 15 14 13 12 13 11 10 9 8 8 8 7 7 6 7 6 6 6 5 4 2 1 0 0 0 1 0 1 2 2 1 0 0 0 -0 -0 0 1 1 1 0 -0 0 0 -0 -0
18 18 20 20 20 19 19 19 19 19 19 18 18 19 19 18 18 17 17 15 14 11 10 10 10 9 8 7 7 7 8 7 8 8 10 12 13 13 14 14 13 12 11 10 10 9 9 8 8 8 7 6 6 7 7 6 6 5 4 3 2 2 3 3 3 2 4 2 2 1 1 0 -0 -1 -1 -1 0 -1 -0 0 -1 -0 -0 -0 -2
18 18 19 20 20 19 19 19 20 19 19 18 18 18 18 17 16 15 14 14 11 9 8 8 8 8 8 10 9 9 8 6 7 8 11 12 13 13 13 13 11 10 10 9 9 8 9 8 8 7 7 7 6 7 6 6 5 5 4 4 5 4 3 3 3 2 3 2 2 2 1 1 -0 -0 -1 -1 -1 -1 -2 -1 -2 -1 -1 -1 -1
18 19 20 21 21 18 18 20 20 20 19 18 18 18 18 17 16 15 12 12 11 8 8 6 6 7 12 8 7 6 7 7 9 11 12 12 13 12 11 10 10 9 9 8 8 8 9 8 8 8 7 7 7 7 6 5 5 5 6 5 3 3 2 2 2 3 3 2 2 2 1 0 -0 -0 -0 -1 -2 -3 -2 -3 -1 -2 -2 -3 -2
18 19 21 20 19 18 18 20 21 20 19 19 18 18 18 18 17 16 13 10 10 9 8 11 7 8 9 10 8 7 7 9 11 12 12 12 11 10 9 9 10 9 9 8 8 8 8 8 8 8 8 8 7 7 7 6 7 7 5 4 3 3 2 1 1 1 2 2 2 1 1 1 0 0 0 -1 -1 -2 -2 -3 -2 -3 -3 -3 -4
17 19 18 17 15 17 18 20 20 20 19 19 18 18 18 18 18 18 17 16 12 10 9 8 9 8 8 8 8 7 11 11 11 11 10 10 10 9 10 10 10 9 9 9 9 9 9 8 8 8 8 9 8 7 7 6 6 5 4 4 3 3 2 1 0 -0 0 0 -0 0 0 -0 1 4 6 4 2 3 -2 -2 -3 -3 -4 -4 -4
17 18 15 14 14 15 17 17 18 18 18 18 18 17 17 17 18 19 18 17 13 10 10 11 10 9 9 10 11 11 11 11 10 9 9 9 9 9 10 10 9 9 10 9 9 9 9 9 8 9 9 8 8 7 9 11 11 6 4 3 3 3 2 2 1 -0 -2 -2 -1 -1 -1 5 5 7 7 7 8 7 6 2 -1 -3 -3 -3 -4
16 16 14 14 14 15 15 15 16 17 17 17 17 17 17 18 18 19 19 18 15 11 10 9 11 11 12 12 12 11 11 9 8 8 8 9 9 9 10 10 10 9 9 9 9 9 9 9 9 9 8 8 8 7 12 16 16 15 6 3 3 2 2 2 1 0 -0 -1 -3 -4 -5 3 6 7 6 8 8 8 8 7 6 4 2 -2 -4
16 15 14 13 14 14 14 15 16 16 15 16 17 17 18 18 17 18 18 19 18 14 11 12 13 13 12 12 11 9 8 8 8 7 8 9 10 10 9 10 9 9 9 9 8 8 8 8 9 8 8 7 7 10 16 17 17 17 14 4 3 2 1 0 0 0 1 0 -1 -3 -4 -4 -0 1 2 3 7 9 8 8 8 7 6 5 5
15 14 13 14 14 13 13 16 16 14 15 17 17 17 16 16 16 17 18 18 18 17 15 14 14 13 12 11 9 8 7 7 9 8 9 9 9 9 9 9 8 9 8 8 9 8 7 7 8 7 7 7 6 12 16 17 17 18 19 11 2 3 1 -0 -1 -1 -0 0 0 -0 -2 -3 -4 4 5 -1 -1 2 8 9 9 8 7 7 11
14 13 13 13 12 11 14 15 14 14 17 17 16 15 16 16 16 17 18 19 19 18 17 15 14 12 11 10 9 8 9 9 8 8 9 9 9 8 8 8 8 8 8 7 7 8 8 7 7 7 7 6 5 10 16 17 17 18 18 16 4 3 2 0 -1 -1 -0 0 0 0 -0 -1 -2 -2 -0 0 -1 -2 -1 2 4 5 5 6 7
14 13 12 10 9 12 14 13 14 17 16 15 14 14 15 16 17 18 18 19 19 17 16 14 13 12 11 10 9 9 9 8 8 8 8 8 8 8 8 8 7 7 7 7 7 7 7 6 6 6 5 4 3 10 15 16 17 18 18 19 7 6 5 4 3 1 1 2 1 1 1 1 1 -0 -0 1 -1 -2 -2 -2 -2 -1 1 2 4
12 10 9 9 11 12 11 12 17 15 13 13 14 15 16 17 18 18 19 19 18 16 14 13 12 12 11 10 10 10 9 9 8 8 7 7 7 7 7 7 7 7 7 7 7 7 6 5 5 4 3 2 2 12 14 15 17 17 17 15 10 9 8 8 6 5 3 3 3 3 2 2 2 1 4 7 5 1 -1 -2 -3 -2 -2 -1 -1
10 9 9 11 11 10 11 15 14 13 12 13 14 15 15 16 16 18 18 18 17 15 13 12 12 12 12 12 11 10 9 9 8 8 7 7 7 7 7 7 6 7 6 6 6 6 6 4 3 2 1 2 1 9 13 14 15 16 15 11 7 8 9 9 8 8 7 6 6 5 4 4 4 4 6 11 13 10 3 1 0 -0 0 0 0
10 10 11 11 8 9 14 14 12 11 12 13 13 13 14 15 16 17 17 17 16 15 14 13 12 13 13 13 12 11 10 9 9 8 7 8 7 8 7 7 6 6 6 5 5 4 4 3 2 1 1 1 1 4 11 13 14 15 13 7 5 4 3 6 8 9 9 9 10 10 10 8 7 7 10 14 14 11 9 8 6 4 3 3 3
9 10 11 9 8 11 14 13 11 11 11 12 12 13 14 14 15 15 15 15 15 16 15 14 14 14 13 13 12 11 10 9 9 8 8 8 8 7 7 7 6 6 6 5 4 3 3 2 2 2 2 1 1 2 8 10 12 13 11 10 10 8 7 8 8 7 8 8 9 10 11 11 10 9 13 14 15 12 10 10 9 8 5 4 4
8 11 10 9 10 12 12 11 11 11 11 11 12 13 13 13 13 13 13 14 15 15 16 15 14 14 13 12 12 11 10 9 9 8 8 8 8 7 7 6 6 6 5 4 3 2 2 1 1 1 1 2 0 -1 2 9 10 11 12 10 10 10 9 8 8 7 7 7 7 7 7 10 13 14 15 15 15 16 11 10 9 8 7 7 8
11 11 12 9 9 10 11 11 11 11 11 11 12 12 12 12 12 12 12 13 13 13 13 13 13 12 12 11 11 11 10 10 9 9 8 8 7 7 6 5 5 4 3 3 2 2 1 1 0 1 -1 -0 -0 -1 0 8 9 10 11 12 10 9 8 7 7 7 6 6 5 5 5 6 9 13 14 16 16 17 16 12 11 9 8 8 9
11 10 10 9 9 9 10 12 11 10 10 11 11 11 11 11 11 10 11 11 10 11 11 11 11 11 11 11 10 10 10 9 9 8 7 7 7 7 5 4 4 3 2 1 1 0 1 -0 -0 -1 -1 -1 -0 1 -2 5 9 10 11 13 9 9 10 8 7 5 5 5 5 4 4 5 7 12 13 14 15 15 16 12 12 16 17 16 11
6 9 10 10 9 8 9 12 11 9 9 10 10 10 10 10 9 10 11 10 10 9 10 10 10 10 9 9 9 9 9 8 8 7 7 6 5 4 4 3 3 2 1 0 -0 -0 -1 -1 -1 -2 -2 -2 -2 -1 1 -0 4 9 12 13 13 11 13 9 8 6 6 5 5 5 5 6 10 12 13 14 14 14 13 11 15 16 15 12 11
8 9 10 10 7 7 10 12 10 9 9 9 9 9 9 9 8 10 10 10 10 9 9 9 8 8 8 8 7 7 7 7 6 6 5 4 3 3 2 2 2 0 -0 -1 -2 -2 -2 -3 -4 -3 -3 -3 -3 -3 -1 1 -0 7 10 11 12 13 13 11 10 9 8 7 6 6 6 11 12 13 14 14 14 12 10 14 15 15 12 12 10
8 10 10 8 7 9 11 10 9 8 8 8 8 8 8 8 9 9 9 9 9 8 7 7 7 7 6 6 6 5 5 5 5 5 4 2 1 1 0 -0 -0 -1 -2 -2 -3 -3 -4 -5 -5 -5 -5 -4 -4 -5 -6 -4 -1 -0 7 10 11 12 11 10 9 9 9 9 10 12 12 13 13 13 13 14 13 11 13 13 11 8 7 5 4
9 9 7 7 9 11 10 8 7 7 7 7 7 7 7 7 8 8 8 8 8 7 7 6 6 6 5 5 4 4 4 4 3 4 3 2 0 -1 -1 -2 -2 -2 -3 -3 -3 -4 -6 -7 -6 -6 -6 -5 -8 -10 -8 -7 -4 -2 -2 4 9 7 6 6 7 6 8 10 12 12 12 11 10 10 8 4 3 3 6 6 5 4 1 -2 -3
8 8 7 8 9 9 8 7 8 8 6 6 5 6 6 7 7 7 7 7 7 7 6 5 5 5 4 4 3 2 2 2 1 0 -1 -2 -3 -4 -4 -5 -5 -5 -5 -5 -6 -7 -9 -9 -8 -7 -6 -9 -10 -10 -9 -8 -7 -7 -6 -5 -4 -3 1 3 3 2 4 2 2 4 3 4 4 5 5 5 3 1 0 -1 -1 -2 -4 -5 -4
8 8 7 7 8 8 8 8 7 7 5 5 5 4 5 6 6 7 6 6 6 6 5 5 5 4 3 3 2 -0 -0 -1 -2 -3 -4 -6 -7 -6 -5 -5 -5 -5 -6 -7 -8 -9 -8 -7 -7 -7 -8 -10 -9 -10 -8 -8 -7 -8 -8 -8 -7 -6 -6 -6 -6 -6 -6 -5 -5 -1 -1 -5 -5 -6 -6 -8 -8 -8 -6 -5 -5 -5 -5 -5 -2
8 8 7 7 7 8 8 8 7 6 4 3 3 4 4 4 5 5 6 6 5 5 4 3 2 3 2 2 1 -0 -1 -2 -4 -6 -6 -5 -5 -5 -5 -6 -6 -6 -4 -5 -6 -6 -6 -7 -7 -8 -9 -9 -9 -9 -8 -5 -6 -4 -7 -8 -8 -8 -8 -7 -5 -4 -6 -10 -11 -12 -12 -11 -11 -8 -9 -8 -8 -9 -8 -8 -9 -8 -7 -6 -6
9 8 6 6 7 7 8 7 7 5 4 3 3 3 3 3 3 4 5 5 4 4 3 2 2 1 0 0 -0 -1 -3 -2 -4 -5 -6 -6 -2 0 -2 -4 -5 -1 -1 1 2 -5 -5 -6 -8 -7 -7 -9 -9 -8 -0 5 8 6 -0 -1 -2 -3 -3 -5 -4 -2 -2 -7 -9 -10 -10 -10 -10 -11 -10 -10 -10 -9 -9 -9 -9 -5 -6 -7 -7
8 6 5 5 6 6 7 6 6 5 3 3 2 2 1 1 2 3 4 4 4 3 2 1 0 0 0 -0 -1 -2 -2 -3 -3 -3 -3 -4 -5 -2 6 6 3 -0 0 5 9 10 9 0 -5 -7 -6 -3 -2 1 6 7 9 10 9 6 3 2 2 2 1 -1 -1 -2 -4 -6 -6 -7 -8 -9 -9 -9 -9 -9 -8 -9 -9 -9 -8 -7 -6